Tracking 18840 objects as of 20-November-2017
HD Live streaming from Space Station
objects crossing your sky now

LEMUR 2 XIAOQING

Track LEMUR 2 XIAOQING now!
10-day predictions
LEMUR 2 XIAOQING is classified as:


NORAD ID: 41871
Int'l Code: 2016-062C
Perigee: 499.9 km
Apogee: 506.3 km
Inclination: 51.6 °
Period: 94.5 minutes
Semi major axis: 6874 km
RCS: Unknown
Launch date: October 17, 2016
Source: (USA)
Launch site: WALLOPS ISLAND (WLPIS)
aabbcc
Your satellite tracking list
Your tracking list is empty




NASA's NSSDC Master Catalog

Two Line Element Set (TLE):
1 41871U 16062C   17323.85241638  .00002939  00000-0  13616-3 0  9992
2 41871  51.6295  67.0841 0004710  60.3854 299.7593 15.23281154 54662
Source of the keplerian elements: AFSPC